Flag for U.S.A. Weather past 2 weeks in Riverside, California, U.S.A.

Now
75 °F

Sunny.


Feels Like: 77 °F
Forecast: 49 / 78 °F
Wind: N/A

Location: Riverside Municipal Airport

Current Time: Apr 1, 2015 at 2:28:46 PM

Latest Report: Apr 1, 2015 at 1:53 PM


Visibility: 10 mi

Pressure: 29.90 "Hg

Humidity: 34%

Dew point: 45 °F

Location of RiversideLocation

Historic Weather in Riverside — Graph

°F

Riverside temperature yesterday

Maximum temperature yesterday: 83 °F (at 1:53 PM)
Minimum temperature yesterday: 55 °F (at 6:53 AM)
Average temperature yesterday: 66 °F

Past Weeks' High & Low Weather Summary

 TemperatureHumidityPressure
High93 °F (Mar 26, 4:53 PM)96% (Mar 20, 7:53 AM)30.18 "Hg (Mar 20, 7:53 AM)
Low51 °F (Mar 24, 6:53 AM)7% (Mar 26, 4:53 PM)29.84 "Hg (Mar 17, 4:53 PM)
Average68 °F52%30.00 "Hg
* Reported Mar 17 12:53 PM — Apr 1 12:53 PM, Riverside, Weather by CustomWeather, © 2015

Note: Actual official high and low records may vary slightly from our data, if they occured in-between our weather recording intervals... More about our weather records

Advertising

Riverside weather history for previous 24 hours

 ConditionsComfort  
Time TempWeatherWind HumidityBarometerVisibility
12:53 PM
Wed, Apr 1
69 °FSunny.5 mph44%29.94 "Hg10 mi
11:53 AM66 °FSunny.3 mph52%29.96 "Hg10 mi
10:53 AM62 °FScattered clouds.N/A62%30.01 "Hg10 mi
9:53 AM59 °FOvercast.3 mph72%30.01 "Hg9 mi
8:53 AM58 °FOvercast.3 mph75%29.98 "Hg9 mi
7:53 AM58 °FOvercast.3 mph78%29.95 "Hg8 mi
6:53 AM57 °FLow clouds.No wind83%29.93 "Hg8 mi
5:53 AM56 °FLow clouds.3 mph87%29.93 "Hg9 mi
4:53 AM56 °FLow clouds.3 mph90%29.94 "Hg8 mi
3:53 AM56 °FMostly cloudy.3 mph90%29.95 "Hg8 mi
2:53 AM56 °FClear.3 mph87%29.94 "Hg9 mi
1:53 AM58 °FClear.No wind84%29.94 "Hg10 mi
12:53 AM58 °FClear.No wind84%29.94 "Hg10 mi
11:53 PM
Tue, Mar 31
58 °FClear.No wind84%29.94 "Hg10 mi
10:53 PM60 °FClear.No wind78%29.94 "Hg10 mi
9:53 PM61 °FClear.3 mph75%29.95 "Hg10 mi
8:53 PM64 °FClear.8 mph68%29.93 "Hg10 mi
7:53 PM67 °FSunny.12 mph55%29.90 "Hg10 mi
6:53 PM72 °FSunny.7 mph35%29.88 "Hg10 mi
5:53 PM73 °FSunny.7 mph38%29.89 "Hg10 mi
4:53 PM76 °FScattered clouds.12 mph33%29.88 "Hg10 mi
3:53 PM78 °FScattered clouds.14 mph24%29.88 "Hg10 mi
2:53 PM81 °FPartly sunny.10 mph25%29.89 "Hg10 mi
Weather by CustomWeather, © 2015

See weather overviewHow to use our weather pages